Showing default

GLOBALSTAR M070, 32264

Orbit data source: Space-Track

GLOBALSTAR M070, 32264 is a payload satellite owned by Globalstar (US) in LEO that was launched on Sat, 20 Oct 2007 UTC via a SOYUZ-FG launch vehicle from the Tyuratam Missile And Space Complex (TTMTR). Payload-class satellites include a variety of spacecraft equipped with specific instruments for various scientific and technological missions. These include communications satellites like Starlink; space stations such as the ISS; scientific satellites like the Hubble; Earth observation satellites from companies like Planet Labs, Umbra, and HawkEye 360; GPS; miniature CubeSats for education and research; and military/defense satellites.

Loading next visibility...
Identifier
32264, 2007-048B
Orbit
LEO
Country
Flag of UnknownUnknown / GLOB
Related business
Manufacturer
SS/Loral
Mission
Non-operational Commercial Communications
Bus & Motor
LS-400, LS-400 AOCS
Mass
450 kg wet, 380 kg dry
Launch date (UTC)
2007-10-20 (18 years ago)
Launch vehicle
SOYUZ-FG
Launch site
Tyuratam Missile And Space Complex (TTMTR)
Object type
Payload
Rocket body
Debris
Shape & HBR
Box + 2 Pan, 6.0 m
Radar Cross Section
5.587 m², Large (>1 m²)

Expand to show TLE details & history
Last TLE update: 1 day ago

TLE from 1 day ago
0 GLOBALSTAR M070
1 32264U 07048B   25301.39230787 -.00000105  00000-0 -40256-5 0  9996
2 32264  51.9743  82.7007 0000994 104.7572 299.7660 12.62324940830496
Epoch: 2025-10-28T09:24Z
TLE epoch observation values (Epoch: 2025-10-28T09:24:55.399Z)
Latitude
33.61991°
Longitude
-64.35331°
Altitude
1,415.198 km
Speed
7.157 km/s
True Right ascension
07h 35m 25s
True Declination
33° 28' 30"
Sunlit
Object was in daylight at epoch
Visualization orbit readout
Latitude
Unknown
Longitude
Unknown
Altitude
Unknown
Speed
Unknown
Apparent Right ascension
Unknown
Apparent Declination
Unknown
Sunlit
N/A
Visualization observer readout
Local Sidereal Time
08:19:11
Azimuth
Unknown
Elevation
Unknown
Doppler factor
Unknown
Orbital elements
Apogee altitude
1,414.533 km
Perigee altitude
1,412.984 km
Semi-major axis
7,791.896 km
Eccentricity
0.0001
Inclination
51.9743°
RAAN
82.7007°
Arg. of periapsis
104.7572°
True anomaly
299.75611°
Mean anomaly
299.766°
Eccentric anomaly
299.76106°
Mean motion
3.15557 °/min
Orbital period
114.08 mins
BSTAR
-0.0000040256
Loading maneuver chart data...
Computing Atmospheric mass density...
Loading historical data...
Loading historical data...
Loading historical data...
Loading historical data...
Loading historical data...
Loading historical data...
Loading historical data...
Other satellites on launch #48 in the year 2007 (2007-10-20 UTC)

Documentation

Showing up to 5 results
|